Time,TemperatureF,DewpointF,PressureIn,WindDirection,WindDirectionDegrees,WindSpeedMPH,WindSpeedGustMPH,Humidity,HourlyPrecipIn,Conditions,Clouds,dailyrainin,SoftwareType,DateUTC
2013-09-14 00:01:00,46.8,22.5,29.80,ESE,106,0.0,0.0,38,0.00,,---,0.00,VWS V14.01,2013-09-14 04:01:00,
2013-09-14 00:02:00,46.8,22.5,29.80,ESE,106,0.0,0.0,38,0.00,,---,0.00,VWS V14.01,2013-09-14 04:02:00,
2013-09-14 00:07:00,46.9,22.7,29.80,ESE,106,0.0,0.0,38,0.00,,---,0.00,VWS V14.01,2013-09-14 04:07:00,
2013-09-14 00:12:00,47.1,22.8,29.80,ESE,106,0.0,0.0,38,0.00,,---,0.00,VWS V14.01,2013-09-14 04:12:00,
2013-09-14 00:17:00,47.1,22.8,29.80,ESE,106,0.0,0.0,38,0.00,,---,0.00,VWS V14.01,2013-09-14 04:17:00,
2013-09-14 00:22:00,47.3,23.0,29.80,ESE,106,0.0,0.0,38,0.00,,---,0.00,VWS V14.01,2013-09-14 04:22:00,
2013-09-14 00:27:00,47.1,22.8,29.80,ESE,106,0.0,0.0,38,0.00,,---,0.00,VWS V14.01,2013-09-14 04:27:00,
2013-09-14 00:32:00,46.8,22.5,29.80,ESE,106,0.0,0.0,38,0.00,,---,0.00,VWS V14.01,2013-09-14 04:32:00,
2013-09-14 00:37:00,46.8,22.5,29.80,ESE,106,0.0,0.0,38,0.00,,---,0.00,VWS V14.01,2013-09-14 04:37:00,
2013-09-14 00:42:00,46.8,22.5,29.80,ESE,106,0.0,0.0,38,0.00,,---,0.00,VWS V14.01,2013-09-14 04:42:00,
2013-09-14 00:47:00,46.9,22.7,29.80,ESE,106,0.0,0.0,38,0.00,,---,0.00,VWS V14.01,2013-09-14 04:47:00,
2013-09-14 00:52:00,46.9,22.7,29.80,ESE,106,0.0,0.0,38,0.00,,---,0.00,VWS V14.01,2013-09-14 04:52:00,
2013-09-14 00:57:00,46.9,22.7,29.80,ESE,106,0.0,0.0,38,0.00,,---,0.00,VWS V14.01,2013-09-14 04:57:00,
2013-09-14 01:02:00,46.9,22.7,29.80,ESE,106,0.0,0.0,38,0.00,,---,0.00,VWS V14.01,2013-09-14 05:02:00,
2013-09-14 01:07:00,46.9,22.7,29.80,ESE,106,0.0,0.0,38,0.00,,---,0.00,VWS V14.01,2013-09-14 05:07:00,
2013-09-14 01:12:00,46.6,22.4,29.80,ESE,106,0.0,0.0,38,0.00,,---,0.00,VWS V14.01,2013-09-14 05:12:00,
2013-09-14 01:17:00,46.6,22.4,29.80,ESE,106,0.0,0.0,38,0.00,,---,0.00,VWS V14.01,2013-09-14 05:17:00,
2013-09-14 01:22:00,46.6,22.4,29.80,ESE,106,0.0,0.0,38,0.00,,---,0.00,VWS V14.01,2013-09-14 05:22:00,
2013-09-14 01:27:00,46.8,22.5,29.80,ESE,106,0.0,0.0,38,0.00,,---,0.00,VWS V14.01,2013-09-14 05:27:00,
2013-09-14 01:32:00,46.6,22.4,29.80,ESE,106,0.0,0.0,38,0.00,,---,0.00,VWS V14.01,2013-09-14 05:32:00,
2013-09-14 01:37:00,46.4,22.2,29.80,ESE,106,0.0,0.0,38,0.00,,---,0.00,VWS V14.01,2013-09-14 05:37:00,
2013-09-14 01:42:00,46.2,22.0,29.80,ESE,106,0.0,0.0,38,0.00,,---,0.00,VWS V14.01,2013-09-14 05:42:00,
2013-09-14 01:47:00,46.2,22.0,29.80,ESE,106,0.0,0.0,38,0.00,,---,0.00,VWS V14.01,2013-09-14 05:47:00,
2013-09-14 01:52:00,46.2,22.0,29.80,ESE,106,0.0,0.0,38,0.00,,---,0.00,VWS V14.01,2013-09-14 05:52:00,
2013-09-14 01:57:00,46.2,22.0,29.80,ESE,106,0.0,0.0,38,0.00,,---,0.00,VWS V14.01,2013-09-14 05:57:00,
2013-09-14 02:02:00,46.2,22.0,29.80,ESE,106,0.0,0.0,38,0.00,,---,0.00,VWS V14.01,2013-09-14 06:02:00,
2013-09-14 02:07:00,46.2,22.0,29.80,ESE,106,0.0,0.0,38,0.00,,---,0.00,VWS V14.01,2013-09-14 06:07:00,
2013-09-14 02:12:00,46.2,22.0,29.80,ESE,106,0.0,0.0,38,0.00,,---,0.00,VWS V14.01,2013-09-14 06:12:00,
2013-09-14 02:17:00,46.0,21.9,29.80,ESE,106,0.0,0.0,38,0.00,,---,0.00,VWS V14.01,2013-09-14 06:17:00,
2013-09-14 02:22:00,46.0,21.9,29.80,ESE,106,0.0,0.0,38,0.00,,---,0.00,VWS V14.01,2013-09-14 06:22:00,
2013-09-14 02:27:00,46.0,21.9,29.80,ESE,106,0.0,0.0,38,0.00,,---,0.00,VWS V14.01,2013-09-14 06:27:00,
2013-09-14 02:32:00,46.2,22.0,29.80,ESE,106,0.0,0.0,38,0.00,,---,0.00,VWS V14.01,2013-09-14 06:32:00,
2013-09-14 02:37:00,46.4,22.2,29.80,ESE,106,0.0,0.0,38,0.00,,---,0.00,VWS V14.01,2013-09-14 06:37:00,
2013-09-14 02:42:00,46.4,22.2,29.80,ESE,106,0.0,0.0,38,0.00,,---,0.00,VWS V14.01,2013-09-14 06:42:00,
2013-09-14 02:47:00,46.2,22.0,29.80,ESE,106,0.0,0.0,38,0.00,,---,0.00,VWS V14.01,2013-09-14 06:47:00,
2013-09-14 02:52:00,46.2,22.0,29.80,ESE,106,0.0,0.0,38,0.00,,---,0.00,VWS V14.01,2013-09-14 06:52:00,
2013-09-14 02:57:00,46.2,22.0,29.80,ESE,106,0.0,0.0,38,0.00,,---,0.00,VWS V14.01,2013-09-14 06:57:00,
2013-09-14 03:02:00,46.0,21.9,29.80,ESE,106,0.0,0.0,38,0.00,,---,0.00,VWS V14.01,2013-09-14 07:02:00,
2013-09-14 03:07:00,46.0,21.9,29.80,ESE,106,0.0,0.0,38,0.00,,---,0.00,VWS V14.01,2013-09-14 07:07:00,
2013-09-14 03:12:00,46.2,22.0,29.80,ESE,106,0.0,0.0,38,0.00,,---,0.00,VWS V14.01,2013-09-14 07:12:00,
2013-09-14 03:17:00,46.2,22.0,29.80,ESE,106,0.0,0.0,38,0.00,,---,0.00,VWS V14.01,2013-09-14 07:17:00,
2013-09-14 03:21:00,46.4,22.2,29.80,ESE,106,0.0,0.0,38,0.00,,---,0.00,VWS V14.01,2013-09-14 07:21:00,
2013-09-14 03:26:00,46.6,22.4,29.80,ESE,106,0.0,0.0,38,0.00,,---,0.00,VWS V14.01,2013-09-14 07:26:00,
2013-09-14 03:31:00,46.6,22.4,29.80,ESE,106,0.0,0.0,38,0.00,,---,0.00,VWS V14.01,2013-09-14 07:31:00,
2013-09-14 03:36:00,46.6,22.4,29.80,ESE,106,0.0,0.0,38,0.00,,---,0.00,VWS V14.01,2013-09-14 07:36:00,
2013-09-14 03:41:00,46.4,22.2,29.80,ESE,106,0.0,0.0,38,0.00,,---,0.00,VWS V14.01,2013-09-14 07:41:00,
2013-09-14 03:46:00,46.4,22.2,29.80,ESE,106,0.0,0.0,38,0.00,,---,0.00,VWS V14.01,2013-09-14 07:46:00,
2013-09-14 03:51:00,46.4,22.2,29.80,ESE,106,0.0,0.0,38,0.00,,---,0.00,VWS V14.01,2013-09-14 07:51:00,
2013-09-14 03:56:00,46.4,22.2,29.80,ESE,106,0.0,0.0,38,0.00,,---,0.00,VWS V14.01,2013-09-14 07:56:00,
2013-09-14 04:01:00,46.4,22.2,29.80,ESE,106,0.0,0.0,38,0.00,,---,0.00,VWS V14.01,2013-09-14 08:01:00,
2013-09-14 04:06:00,46.4,22.2,29.80,ESE,106,0.0,0.0,38,0.00,,---,0.00,VWS V14.01,2013-09-14 08:06:00,
2013-09-14 04:11:00,46.4,22.2,29.80,ESE,106,0.0,0.0,38,0.00,,---,0.00,VWS V14.01,2013-09-14 08:11:00,
2013-09-14 04:16:00,46.2,22.0,29.80,ESE,106,0.0,0.0,38,0.00,,---,0.00,VWS V14.01,2013-09-14 08:16:00,
2013-09-14 04:21:00,46.2,22.0,29.80,ESE,106,0.0,0.0,38,0.00,,---,0.00,VWS V14.01,2013-09-14 08:21:00,
2013-09-14 04:26:00,46.4,22.2,29.80,ESE,106,0.0,0.0,38,0.00,,---,0.00,VWS V14.01,2013-09-14 08:26:00,
2013-09-14 04:31:00,46.6,22.4,29.80,ESE,106,0.0,0.0,38,0.00,,---,0.00,VWS V14.01,2013-09-14 08:31:00,
2013-09-14 04:36:00,46.6,22.4,29.80,ESE,106,0.0,0.0,38,0.00,,---,0.00,VWS V14.01,2013-09-14 08:36:00,
2013-09-14 04:41:00,46.4,22.2,29.80,ESE,106,0.0,0.0,38,0.00,,---,0.00,VWS V14.01,2013-09-14 08:41:00,
2013-09-14 04:46:00,46.4,22.2,29.80,ESE,106,0.0,0.0,38,0.00,,---,0.00,VWS V14.01,2013-09-14 08:46:00,
2013-09-14 04:51:00,46.4,22.2,29.80,ESE,106,0.0,0.0,38,0.00,,---,0.00,VWS V14.01,2013-09-14 08:51:00,
2013-09-14 04:56:00,46.4,22.2,29.80,ESE,106,0.0,0.0,38,0.00,,---,0.00,VWS V14.01,2013-09-14 08:56:00,
2013-09-14 05:01:00,46.4,22.2,29.80,ESE,106,0.0,0.0,38,0.00,,---,0.00,VWS V14.01,2013-09-14 09:01:00,
2013-09-14 05:06:00,46.4,22.2,29.80,ESE,106,0.0,0.0,38,0.00,,---,0.00,VWS V14.01,2013-09-14 09:06:00,
2013-09-14 05:11:00,46.4,22.2,29.80,ESE,106,0.0,0.0,38,0.00,,---,0.00,VWS V14.01,2013-09-14 09:11:00,
2013-09-14 05:16:00,46.4,22.2,29.83,ESE,106,0.0,0.0,38,0.00,,---,0.00,VWS V14.01,2013-09-14 09:16:00,
2013-09-14 05:21:00,46.6,22.4,29.83,ESE,106,0.0,0.0,38,0.00,,---,0.00,VWS V14.01,2013-09-14 09:21:00,
2013-09-14 05:26:00,46.6,22.4,29.83,ESE,106,0.0,0.0,38,0.00,,---,0.00,VWS V14.01,2013-09-14 09:26:00,
2013-09-14 05:31:00,46.6,22.4,29.83,ESE,106,0.0,0.0,38,0.00,,---,0.00,VWS V14.01,2013-09-14 09:31:00,
2013-09-14 05:36:00,46.6,22.4,29.83,ESE,106,0.0,0.0,38,0.00,,---,0.00,VWS V14.01,2013-09-14 09:36:00,
2013-09-14 05:41:00,46.4,22.2,29.83,ESE,106,0.0,0.0,38,0.00,,---,0.00,VWS V14.01,2013-09-14 09:41:00,
2013-09-14 05:46:00,46.4,22.2,29.83,ESE,106,0.0,0.0,38,0.00,,---,0.00,VWS V14.01,2013-09-14 09:46:00,
2013-09-14 05:51:00,46.6,22.4,29.83,ESE,106,0.0,0.0,38,0.00,,---,0.00,VWS V14.01,2013-09-14 09:51:00,
2013-09-14 05:56:00,46.6,22.4,29.83,ESE,106,0.0,0.0,38,0.00,,---,0.00,VWS V14.01,2013-09-14 09:56:00,
2013-09-14 06:01:00,46.4,22.2,29.83,ESE,106,0.0,0.0,38,0.00,,---,0.00,VWS V14.01,2013-09-14 10:01:00,
2013-09-14 06:06:00,46.4,22.2,29.83,ESE,106,0.0,0.0,38,0.00,,---,0.00,VWS V14.01,2013-09-14 10:06:00,
2013-09-14 06:11:00,46.4,22.2,29.83,ESE,106,0.0,0.0,38,0.00,,---,0.00,VWS V14.01,2013-09-14 10:11:00,
2013-09-14 06:16:00,46.6,22.4,29.83,ESE,106,0.0,0.0,38,0.00,,---,0.00,VWS V14.01,2013-09-14 10:16:00,
2013-09-14 06:21:00,46.4,22.2,29.83,ESE,106,0.0,0.0,38,0.00,,---,0.00,VWS V14.01,2013-09-14 10:21:00,
2013-09-14 06:26:00,46.4,22.2,29.83,ESE,106,0.0,0.0,38,0.00,,---,0.00,VWS V14.01,2013-09-14 10:26:00,
2013-09-14 06:31:00,46.4,22.2,29.83,ESE,106,0.0,0.0,38,0.00,,---,0.00,VWS V14.01,2013-09-14 10:31:00,
2013-09-14 06:36:00,46.4,22.2,29.83,ESE,106,0.0,0.0,38,0.00,,---,0.00,VWS V14.01,2013-09-14 10:36:00,
2013-09-14 06:41:00,46.4,22.2,29.83,ESE,106,0.0,0.0,38,0.00,,---,0.00,VWS V14.01,2013-09-14 10:41:00,
2013-09-14 06:46:00,46.4,22.2,29.83,ESE,106,0.0,0.0,38,0.00,,---,0.00,VWS V14.01,2013-09-14 10:46:00,
2013-09-14 06:51:00,46.4,22.2,29.83,ESE,106,0.0,0.0,38,0.00,,---,0.00,VWS V14.01,2013-09-14 10:51:00,
2013-09-14 06:56:00,46.6,22.4,29.83,ESE,106,0.0,0.0,38,0.00,,---,0.00,VWS V14.01,2013-09-14 10:56:00,
2013-09-14 07:01:00,46.6,22.4,29.83,ESE,106,0.0,0.0,38,0.00,,---,0.00,VWS V14.01,2013-09-14 11:01:00,
2013-09-14 07:06:00,46.6,22.4,29.83,North,349,0.0,0.0,38,0.00,,---,0.00,VWS V14.01,2013-09-14 11:06:00,
2013-09-14 07:11:00,46.6,22.4,29.83,North,349,0.0,0.0,38,0.00,,---,0.00,VWS V14.01,2013-09-14 11:11:00,
2013-09-14 07:16:00,46.6,22.4,29.83,North,349,0.0,0.0,38,0.00,,---,0.00,VWS V14.01,2013-09-14 11:16:00,
2013-09-14 07:21:00,46.6,22.4,29.83,North,349,0.0,0.0,38,0.00,,---,0.00,VWS V14.01,2013-09-14 11:21:00,
2013-09-14 07:26:00,46.4,22.2,29.83,North,349,0.0,0.0,38,0.00,,---,0.00,VWS V14.01,2013-09-14 11:26:00,
2013-09-14 07:31:00,46.6,22.4,29.86,North,349,0.0,0.0,38,0.00,,---,0.00,VWS V14.01,2013-09-14 11:31:00,
2013-09-14 07:36:00,46.6,22.4,29.86,North,349,0.0,0.0,38,0.00,,---,0.00,VWS V14.01,2013-09-14 11:36:00,
2013-09-14 07:41:00,46.6,22.4,29.86,North,349,0.0,0.0,38,0.00,,---,0.00,VWS V14.01,2013-09-14 11:41:00,
2013-09-14 07:46:00,46.6,22.4,29.86,North,349,0.0,0.0,38,0.00,,---,0.00,VWS V14.01,2013-09-14 11:46:00,
2013-09-14 07:51:00,46.8,22.5,29.86,North,349,0.0,0.0,38,0.00,,---,0.00,VWS V14.01,2013-09-14 11:51:00,
2013-09-14 07:56:00,46.8,22.5,29.86,North,349,0.0,0.0,38,0.00,,---,0.00,VWS V14.01,2013-09-14 11:56:00,
2013-09-14 08:01:00,46.9,22.7,29.86,North,349,0.0,0.0,38,0.00,,---,0.00,VWS V14.01,2013-09-14 12:01:00,
2013-09-14 08:06:00,47.1,22.8,29.86,North,349,0.0,0.0,38,0.00,,---,0.00,VWS V14.01,2013-09-14 12:06:00,
2013-09-14 08:11:00,47.1,22.8,29.86,North,349,0.0,0.0,38,0.00,,---,0.00,VWS V14.01,2013-09-14 12:11:00,
2013-09-14 08:16:00,47.3,23.0,29.86,North,349,0.0,0.0,38,0.00,,---,0.00,VWS V14.01,2013-09-14 12:16:00,
2013-09-14 08:21:00,47.5,23.2,29.86,North,349,0.0,0.0,38,0.00,,---,0.00,VWS V14.01,2013-09-14 12:21:00,
2013-09-14 08:26:00,47.5,23.2,29.86,North,349,0.0,0.0,38,0.00,,---,0.00,VWS V14.01,2013-09-14 12:26:00,
2013-09-14 08:31:00,47.7,23.3,29.86,NNW,342,0.0,0.0,38,0.00,,---,0.00,VWS V14.01,2013-09-14 12:31:00,
2013-09-14 08:36:00,47.8,23.5,29.86,NNW,342,0.0,0.0,38,0.00,,---,0.00,VWS V14.01,2013-09-14 12:36:00,
2013-09-14 08:41:00,47.8,23.5,29.86,NNW,342,0.0,0.0,38,0.00,,---,0.00,VWS V14.01,2013-09-14 12:41:00,
2013-09-14 08:46:00,47.8,23.5,29.86,NNW,342,0.0,0.0,38,0.00,,---,0.00,VWS V14.01,2013-09-14 12:46:00,
2013-09-14 08:51:00,47.8,23.5,29.86,SW,235,0.0,0.0,38,0.00,,---,0.00,VWS V14.01,2013-09-14 12:51:00,
2013-09-14 08:56:00,47.8,23.5,29.86,SW,235,0.0,0.0,38,0.00,,---,0.00,VWS V14.01,2013-09-14 12:56:00,
2013-09-14 09:01:00,47.8,23.5,29.86,SW,235,0.0,0.0,38,0.00,,---,0.00,VWS V14.01,2013-09-14 13:01:00,
2013-09-14 09:06:00,48.0,23.6,29.86,WSW,248,0.0,0.0,38,0.00,,---,0.00,VWS V14.01,2013-09-14 13:06:00,
2013-09-14 09:11:00,48.0,23.6,29.86,WSW,248,0.0,0.0,38,0.00,,---,0.00,VWS V14.01,2013-09-14 13:11:00,
2013-09-14 09:16:00,48.2,23.2,29.89,WSW,248,0.0,0.0,37,0.00,,---,0.00,VWS V14.01,2013-09-14 13:16:00,
2013-09-14 09:21:00,48.2,23.2,29.89,NW,312,0.0,0.0,37,0.00,,---,0.00,VWS V14.01,2013-09-14 13:21:00,
2013-09-14 09:26:00,48.4,23.3,29.89,North,353,0.0,0.0,37,0.00,,---,0.00,VWS V14.01,2013-09-14 13:26:00,
2013-09-14 09:31:00,48.6,23.5,29.89,North,353,0.0,0.0,37,0.00,,---,0.00,VWS V14.01,2013-09-14 13:31:00,
2013-09-14 09:36:00,49.1,24.0,29.89,North,353,0.0,0.0,37,0.00,,---,0.00,VWS V14.01,2013-09-14 13:36:00,
2013-09-14 09:41:00,49.5,24.3,29.89,ENE,77,0.0,0.0,37,0.00,,---,0.00,VWS V14.01,2013-09-14 13:41:00,
2013-09-14 09:46:00,49.3,24.1,29.89,WNW,286,0.0,0.0,37,0.00,,---,0.00,VWS V14.01,2013-09-14 13:46:00,
2013-09-14 09:51:00,49.5,24.3,29.89,WNW,286,0.0,0.0,37,0.00,,---,0.00,VWS V14.01,2013-09-14 13:51:00,
2013-09-14 09:56:00,49.3,24.1,29.89,WNW,286,0.0,0.0,37,0.00,,---,0.00,VWS V14.01,2013-09-14 13:56:00,
2013-09-14 10:01:00,49.3,24.1,29.89,ENE,73,0.0,0.0,37,0.00,,---,0.00,VWS V14.01,2013-09-14 14:01:00,
2013-09-14 10:06:00,49.3,24.1,29.89,ENE,73,0.0,0.0,37,0.00,,---,0.00,VWS V14.01,2013-09-14 14:06:00,
2013-09-14 10:11:00,49.8,24.6,29.89,NNW,329,0.0,0.0,37,0.00,,---,0.00,VWS V14.01,2013-09-14 14:11:00,
2013-09-14 10:16:00,49.8,24.6,29.89,NNW,332,0.0,0.0,37,0.00,,---,0.00,VWS V14.01,2013-09-14 14:16:00,
2013-09-14 10:21:00,49.6,24.5,29.89,NNW,333,0.0,0.0,37,0.00,,---,0.00,VWS V14.01,2013-09-14 14:21:00,
2013-09-14 10:26:00,49.5,24.3,29.89,NW,323,0.0,2.7,37,0.00,,---,0.00,VWS V14.01,2013-09-14 14:26:00,
2013-09-14 10:31:00,49.5,24.3,29.89,NW,315,0.0,0.0,37,0.00,,---,0.00,VWS V14.01,2013-09-14 14:31:00,
2013-09-14 10:36:00,49.5,24.3,29.89,NW,321,0.0,0.0,37,0.00,,---,0.00,VWS V14.01,2013-09-14 14:36:00,
2013-09-14 10:41:00,49.8,24.6,29.89,NW,321,0.0,0.0,37,0.00,,---,0.00,VWS V14.01,2013-09-14 14:41:00,
2013-09-14 10:46:00,50.4,25.1,29.92,NW,324,0.0,0.0,37,0.00,,---,0.00,VWS V14.01,2013-09-14 14:46:00,
2013-09-14 10:51:00,50.9,25.6,29.92,NW,316,0.0,0.0,37,0.00,,---,0.00,VWS V14.01,2013-09-14 14:51:00,
2013-09-14 10:56:00,51.1,25.7,29.92,NW,315,0.0,0.0,37,0.00,,---,0.00,VWS V14.01,2013-09-14 14:56:00,
2013-09-14 11:01:00,51.4,26.0,29.92,NW,310,0.0,0.0,37,0.00,,---,0.00,VWS V14.01,2013-09-14 15:01:00,
2013-09-14 11:06:00,51.6,26.2,29.92,WSW,244,0.0,0.0,37,0.00,,---,0.00,VWS V14.01,2013-09-14 15:06:00,
2013-09-14 11:11:00,51.1,25.1,29.92,WNW,290,0.0,0.0,36,0.00,,---,0.00,VWS V14.01,2013-09-14 15:11:00,
2013-09-14 11:16:00,50.9,24.9,29.92,West,280,0.0,0.0,36,0.00,,---,0.00,VWS V14.01,2013-09-14 15:16:00,
2013-09-14 11:21:00,50.9,24.9,29.92,West,278,0.0,0.0,36,0.00,,---,0.00,VWS V14.01,2013-09-14 15:21:00,
2013-09-14 11:26:00,51.3,25.2,29.92,WNW,287,0.0,0.0,36,0.00,,---,0.00,VWS V14.01,2013-09-14 15:26:00,
2013-09-14 11:31:00,51.4,25.4,29.92,WNW,287,0.0,0.0,36,0.00,,---,0.00,VWS V14.01,2013-09-14 15:31:00,
2013-09-14 11:36:00,52.7,26.5,29.92,NW,316,0.0,0.0,36,0.00,,---,0.00,VWS V14.01,2013-09-14 15:36:00,
2013-09-14 11:41:00,52.7,26.5,29.92,NNE,23,0.0,0.0,36,0.00,,---,0.00,VWS V14.01,2013-09-14 15:41:00,
2013-09-14 11:46:00,53.1,26.8,29.92,West,260,0.0,0.0,36,0.00,,---,0.00,VWS V14.01,2013-09-14 15:46:00,
2013-09-14 11:51:00,53.2,27.0,29.92,NNW,338,0.0,0.0,36,0.00,,---,0.00,VWS V14.01,2013-09-14 15:51:00,
2013-09-14 11:56:00,53.2,27.0,29.92,West,272,2.7,3.1,36,0.00,,---,0.00,VWS V14.01,2013-09-14 15:56:00,
2013-09-14 12:01:00,53.8,27.5,29.92,West,259,0.0,0.0,36,0.00,,---,0.00,VWS V14.01,2013-09-14 16:01:00,
2013-09-14 12:06:00,53.8,27.5,29.92,NW,306,0.0,0.0,36,0.00,,---,0.00,VWS V14.01,2013-09-14 16:06:00,
2013-09-14 12:11:00,53.2,27.0,29.92,SSE,162,0.0,0.0,36,0.00,,---,0.00,VWS V14.01,2013-09-14 16:11:00,
2013-09-14 12:16:00,53.1,26.8,29.92,North,0,2.2,3.6,36,0.00,,---,0.00,VWS V14.01,2013-09-14 16:16:00,
2013-09-14 12:21:00,53.1,26.8,29.92,WNW,302,0.0,0.0,36,0.00,,---,0.00,VWS V14.01,2013-09-14 16:21:00,
2013-09-14 12:26:00,53.4,27.1,29.92,SSW,192,0.0,0.0,36,0.00,,---,0.00,VWS V14.01,2013-09-14 16:26:00,
2013-09-14 12:31:00,54.1,27.8,29.92,SW,226,0.0,0.0,36,0.00,,---,0.00,VWS V14.01,2013-09-14 16:31:00,
2013-09-14 12:36:00,54.1,27.8,29.92,NNW,341,0.0,0.0,36,0.00,,---,0.00,VWS V14.01,2013-09-14 16:36:00,
2013-09-14 12:41:00,54.7,28.3,29.92,NNE,30,0.0,0.0,36,0.00,,---,0.00,VWS V14.01,2013-09-14 16:41:00,
2013-09-14 12:46:00,54.7,28.3,29.92,WNW,300,0.0,0.0,36,0.00,,---,0.00,VWS V14.01,2013-09-14 16:46:00,
2013-09-14 12:51:00,55.8,28.5,29.92,WNW,302,2.2,2.7,35,0.00,,---,0.00,VWS V14.01,2013-09-14 16:51:00,
2013-09-14 12:56:00,56.1,28.9,29.92,North,353,0.0,0.0,35,0.00,,---,0.00,VWS V14.01,2013-09-14 16:56:00,
2013-09-14 13:01:00,55.9,28.7,29.92,NE,36,0.0,0.0,35,0.00,,---,0.00,VWS V14.01,2013-09-14 17:01:00,
2013-09-14 13:06:00,55.9,28.7,29.92,NNE,32,0.0,0.0,35,0.00,,---,0.00,VWS V14.01,2013-09-14 17:06:00,
2013-09-14 13:11:00,56.3,29.0,29.92,NNE,21,0.0,0.0,35,0.00,,---,0.00,VWS V14.01,2013-09-14 17:11:00,
2013-09-14 13:16:00,56.1,28.9,29.92,NNW,331,0.0,0.0,35,0.00,,---,0.00,VWS V14.01,2013-09-14 17:16:00,
2013-09-14 13:21:00,55.8,28.5,29.92,NE,52,0.0,0.0,35,0.00,,---,0.00,VWS V14.01,2013-09-14 17:21:00,
2013-09-14 13:26:00,56.1,28.9,29.92,North,353,0.0,0.0,35,0.00,,---,0.00,VWS V14.01,2013-09-14 17:26:00,
2013-09-14 13:31:00,55.9,28.7,29.92,NNE,22,0.0,0.0,35,0.00,,---,0.00,VWS V14.01,2013-09-14 17:31:00,
2013-09-14 13:36:00,55.6,28.4,29.92,NNW,334,0.0,0.0,35,0.00,,---,0.00,VWS V14.01,2013-09-14 17:36:00,
2013-09-14 13:41:00,55.9,28.7,29.92,NW,313,0.0,0.0,35,0.00,,---,0.00,VWS V14.01,2013-09-14 17:41:00,
2013-09-14 13:46:00,57.0,29.7,29.89,NW,320,0.0,0.0,35,0.00,,---,0.00,VWS V14.01,2013-09-14 17:46:00,
2013-09-14 13:51:00,57.0,29.7,29.89,North,0,0.0,0.0,35,0.00,,---,0.00,VWS V14.01,2013-09-14 17:51:00,
2013-09-14 13:56:00,56.5,29.2,29.89,ESE,110,0.0,0.0,35,0.00,,---,0.00,VWS V14.01,2013-09-14 17:56:00,
2013-09-14 14:01:00,57.2,29.8,29.89,NW,306,0.0,0.0,35,0.00,,---,0.00,VWS V14.01,2013-09-14 18:01:00,
2013-09-14 14:06:00,57.6,30.1,29.89,NNW,336,0.0,0.0,35,0.00,,---,0.00,VWS V14.01,2013-09-14 18:06:00,
2013-09-14 14:11:00,57.9,30.5,29.89,NNW,341,0.0,0.0,35,0.00,,---,0.00,VWS V14.01,2013-09-14 18:11:00,
2013-09-14 14:16:00,58.1,30.6,29.89,SW,225,0.0,0.0,35,0.00,,---,0.00,VWS V14.01,2013-09-14 18:16:00,
2013-09-14 14:21:00,57.6,30.1,29.89,SW,224,0.0,0.0,35,0.00,,---,0.00,VWS V14.01,2013-09-14 18:21:00,
2013-09-14 14:26:00,57.9,30.5,29.89,West,262,2.7,4.9,35,0.00,,---,0.00,VWS V14.01,2013-09-14 18:26:00,
2013-09-14 14:31:00,57.2,29.8,29.89,WNW,290,0.0,0.0,35,0.00,,---,0.00,VWS V14.01,2013-09-14 18:31:00,
2013-09-14 14:36:00,56.7,29.3,29.89,WNW,291,0.0,0.0,35,0.00,,---,0.00,VWS V14.01,2013-09-14 18:36:00,
2013-09-14 14:41:00,57.4,30.0,29.89,NE,37,0.0,0.0,35,0.00,,---,0.00,VWS V14.01,2013-09-14 18:41:00,
2013-09-14 14:46:00,58.5,30.9,29.89,North,357,0.0,0.0,35,0.00,,---,0.00,VWS V14.01,2013-09-14 18:46:00,
2013-09-14 14:51:00,60.1,31.6,29.89,WSW,237,0.0,0.0,34,0.00,,---,0.00,VWS V14.01,2013-09-14 18:51:00,
2013-09-14 14:56:00,60.8,32.3,29.89,West,281,3.1,3.1,34,0.00,,---,0.00,VWS V14.01,2013-09-14 18:56:00,
2013-09-14 15:01:00,61.5,32.9,29.89,NNW,336,0.0,0.0,34,0.00,,---,0.00,VWS V14.01,2013-09-14 19:01:00,
2013-09-14 15:06:00,61.7,33.1,29.89,WNW,303,0.0,0.0,34,0.00,,---,0.00,VWS V14.01,2013-09-14 19:06:00,
2013-09-14 15:11:00,62.2,33.5,29.89,NW,320,0.0,0.0,34,0.00,,---,0.00,VWS V14.01,2013-09-14 19:11:00,
2013-09-14 15:16:00,62.4,33.7,29.89,NNW,341,0.0,0.0,34,0.00,,---,0.00,VWS V14.01,2013-09-14 19:16:00,
2013-09-14 15:21:00,61.7,33.1,29.89,NNE,21,0.0,3.1,34,0.00,,---,0.00,VWS V14.01,2013-09-14 19:21:00,
2013-09-14 15:26:00,62.2,33.5,29.89,WNW,286,0.0,0.0,34,0.00,,---,0.00,VWS V14.01,2013-09-14 19:26:00,
2013-09-14 15:31:00,63.0,34.2,29.89,West,261,0.0,0.0,34,0.00,,---,0.00,VWS V14.01,2013-09-14 19:31:00,
2013-09-14 15:36:00,63.3,34.5,29.89,West,266,0.0,0.0,34,0.00,,---,0.00,VWS V14.01,2013-09-14 19:36:00,
2013-09-14 15:41:00,63.0,34.2,29.89,SSW,200,0.0,0.0,34,0.00,,---,0.00,VWS V14.01,2013-09-14 19:41:00,
2013-09-14 15:46:00,63.3,34.5,29.89,NNE,33,0.0,0.0,34,0.00,,---,0.00,VWS V14.01,2013-09-14 19:46:00,
2013-09-14 15:51:00,63.5,34.7,29.89,North,357,0.0,0.0,34,0.00,,---,0.00,VWS V14.01,2013-09-14 19:51:00,
2013-09-14 15:56:00,63.1,34.3,29.89,North,353,0.0,0.0,34,0.00,,---,0.00,VWS V14.01,2013-09-14 19:56:00,
2013-09-14 16:01:00,63.1,34.3,29.89,WSW,253,0.0,0.0,34,0.00,,---,0.00,VWS V14.01,2013-09-14 20:01:00,
2013-09-14 16:06:00,62.6,33.9,29.89,NNE,20,0.0,0.0,34,0.00,,---,0.00,VWS V14.01,2013-09-14 20:06:00,
2013-09-14 16:11:00,62.6,33.9,29.89,WNW,293,0.0,0.0,34,0.00,,---,0.00,VWS V14.01,2013-09-14 20:11:00,
2013-09-14 16:16:00,63.5,34.7,29.89,West,269,0.0,0.0,34,0.00,,---,0.00,VWS V14.01,2013-09-14 20:16:00,
2013-09-14 16:21:00,65.1,35.3,29.89,West,277,0.0,0.0,33,0.00,,---,0.00,VWS V14.01,2013-09-14 20:21:00,
2013-09-14 16:26:00,67.5,37.4,29.89,NNW,336,0.0,0.0,33,0.00,,---,0.00,VWS V14.01,2013-09-14 20:26:00,
2013-09-14 16:31:00,69.1,38.0,29.89,WSW,247,0.0,0.0,32,0.00,,---,0.00,VWS V14.01,2013-09-14 20:31:00,
2013-09-14 16:36:00,74.3,41.7,29.89,WNW,286,0.0,0.0,31,0.00,,---,0.00,VWS V14.01,2013-09-14 20:36:00,
2013-09-14 16:41:00,77.9,44.0,29.89,WSW,258,0.0,0.0,30,0.00,,---,0.00,VWS V14.01,2013-09-14 20:41:00,
2013-09-14 16:46:00,77.9,44.0,29.89,West,261,0.0,0.0,30,0.00,,---,0.00,VWS V14.01,2013-09-14 20:46:00,
2013-09-14 16:51:00,72.9,41.3,29.89,NNE,16,0.0,0.0,32,0.00,,---,0.00,VWS V14.01,2013-09-14 20:51:00,
2013-09-14 16:56:00,73.2,41.6,29.89,WNW,290,0.0,0.0,32,0.00,,---,0.00,VWS V14.01,2013-09-14 20:56:00,
2013-09-14 17:01:00,69.3,38.2,29.89,NNE,14,0.0,0.0,32,0.00,,---,0.00,VWS V14.01,2013-09-14 21:01:00,
2013-09-14 17:06:00,65.1,35.3,29.89,North,10,0.0,0.0,33,0.00,,---,0.00,VWS V14.01,2013-09-14 21:06:00,
2013-09-14 17:11:00,62.6,33.9,29.89,North,2,0.0,0.0,34,0.00,,---,0.00,VWS V14.01,2013-09-14 21:11:00,
2013-09-14 17:16:00,61.0,32.4,29.89,North,2,0.0,0.0,34,0.00,,---,0.00,VWS V14.01,2013-09-14 21:16:00,
2013-09-14 17:21:00,60.3,31.8,29.89,North,3,0.0,0.0,34,0.00,,---,0.00,VWS V14.01,2013-09-14 21:21:00,
2013-09-14 17:26:00,60.1,31.6,29.89,North,0,3.6,3.6,34,0.00,,---,0.00,VWS V14.01,2013-09-14 21:26:00,
2013-09-14 17:31:00,59.5,31.2,29.89,North,5,0.0,0.0,34,0.00,,---,0.00,VWS V14.01,2013-09-14 21:31:00,
2013-09-14 17:36:00,59.2,30.9,29.89,NNE,17,0.0,0.0,34,0.00,,---,0.00,VWS V14.01,2013-09-14 21:36:00,
2013-09-14 17:41:00,59.0,30.7,29.89,NNE,15,0.0,0.0,34,0.00,,---,0.00,VWS V14.01,2013-09-14 21:41:00,
2013-09-14 17:46:00,58.8,31.2,29.89,WNW,289,0.0,0.0,35,0.00,,---,0.00,VWS V14.01,2013-09-14 21:46:00,
2013-09-14 17:51:00,58.5,30.9,29.89,WNW,289,0.0,0.0,35,0.00,,---,0.00,VWS V14.01,2013-09-14 21:51:00,
2013-09-14 17:56:00,58.5,30.9,29.89,North,350,0.0,0.0,35,0.00,,---,0.00,VWS V14.01,2013-09-14 21:56:00,
2013-09-14 18:01:00,58.1,30.6,29.89,NNW,340,0.0,0.0,35,0.00,,---,0.00,VWS V14.01,2013-09-14 22:01:00,
2013-09-14 18:06:00,57.9,30.5,29.89,SW,235,0.0,0.0,35,0.00,,---,0.00,VWS V14.01,2013-09-14 22:06:00,
2013-09-14 18:11:00,57.6,30.1,29.89,WSW,248,0.0,0.0,35,0.00,,---,0.00,VWS V14.01,2013-09-14 22:11:00,
2013-09-14 18:16:00,57.4,30.0,29.92,WSW,248,0.0,0.0,35,0.00,,---,0.00,VWS V14.01,2013-09-14 22:16:00,
2013-09-14 18:21:00,57.0,29.7,29.92,NNW,340,0.0,0.0,35,0.00,,---,0.00,VWS V14.01,2013-09-14 22:21:00,
2013-09-14 18:26:00,56.7,29.3,29.92,NNW,342,0.0,0.0,35,0.00,,---,0.00,VWS V14.01,2013-09-14 22:26:00,
2013-09-14 18:31:00,56.5,29.2,29.92,NNW,342,0.0,0.0,35,0.00,,---,0.00,VWS V14.01,2013-09-14 22:31:00,
2013-09-14 18:36:00,56.3,29.0,29.92,NNW,342,0.0,0.0,35,0.00,,---,0.00,VWS V14.01,2013-09-14 22:36:00,
2013-09-14 18:41:00,56.1,28.9,29.92,NNW,342,0.0,0.0,35,0.00,,---,0.00,VWS V14.01,2013-09-14 22:41:00,
2013-09-14 18:46:00,55.8,28.5,29.92,NNW,342,0.0,0.0,35,0.00,,---,0.00,VWS V14.01,2013-09-14 22:46:00,
2013-09-14 18:49:00,55.6,28.4,29.92,NNW,342,0.0,0.0,35,0.00,,---,0.00,VWS V14.01,2013-09-14 22:49:00,
2013-09-14 18:54:00,55.2,28.8,29.92,NNW,342,0.0,0.0,36,0.00,,---,0.00,VWS V14.01,2013-09-14 22:54:00,
2013-09-14 18:59:00,54.9,28.4,29.92,NNW,342,0.0,0.0,36,0.00,,---,0.00,VWS V14.01,2013-09-14 22:59:00,
2013-09-14 19:04:00,54.5,28.1,29.92,NNW,342,0.0,0.0,36,0.00,,---,0.00,VWS V14.01,2013-09-14 23:04:00,
2013-09-14 19:09:00,53.8,27.5,29.92,NNW,342,0.0,0.0,36,0.00,,---,0.00,VWS V14.01,2013-09-14 23:09:00,
2013-09-14 19:14:00,53.1,26.8,29.92,NNW,342,0.0,0.0,36,0.00,,---,0.00,VWS V14.01,2013-09-14 23:14:00,
2013-09-14 19:19:00,52.5,26.4,29.92,NNW,342,0.0,0.0,36,0.00,,---,0.00,VWS V14.01,2013-09-14 23:19:00,
2013-09-14 19:24:00,51.8,25.7,29.92,NNW,342,0.0,0.0,36,0.00,,---,0.00,VWS V14.01,2013-09-14 23:24:00,
2013-09-14 19:29:00,51.4,25.4,29.92,NNW,342,0.0,0.0,36,0.00,,---,0.00,VWS V14.01,2013-09-14 23:29:00,
2013-09-14 19:34:00,50.9,24.9,29.92,NNW,342,0.0,0.0,36,0.00,,---,0.00,VWS V14.01,2013-09-14 23:34:00,
2013-09-14 19:39:00,50.4,24.4,29.92,NNW,342,0.0,0.0,36,0.00,,---,0.00,VWS V14.01,2013-09-14 23:39:00,
2013-09-14 19:44:00,50.0,24.1,29.92,NNW,342,0.0,0.0,36,0.00,,---,0.00,VWS V14.01,2013-09-14 23:44:00,
2013-09-14 19:49:00,49.8,24.6,29.92,NNW,342,0.0,0.0,37,0.00,,---,0.00,VWS V14.01,2013-09-14 23:49:00,
2013-09-14 19:54:00,49.1,24.0,29.92,NNW,342,0.0,0.0,37,0.00,,---,0.00,VWS V14.01,2013-09-14 23:54:00,
2013-09-14 19:59:00,48.6,23.5,29.92,NNW,342,0.0,0.0,37,0.00,,---,0.00,VWS V14.01,2013-09-14 23:59:00,
2013-09-14 20:04:00,48.6,23.5,29.92,NNW,342,0.0,0.0,37,0.00,,---,0.00,VWS V14.01,2013-09-15 00:04:00,
2013-09-14 20:09:00,48.4,23.3,29.92,NNW,342,0.0,0.0,37,0.00,,---,0.00,VWS V14.01,2013-09-15 00:09:00,
2013-09-14 20:14:00,48.0,23.6,29.92,NNW,342,0.0,0.0,38,0.00,,---,0.00,VWS V14.01,2013-09-15 00:14:00,
2013-09-14 20:19:00,47.7,23.3,29.92,NNW,342,0.0,0.0,38,0.00,,---,0.00,VWS V14.01,2013-09-15 00:19:00,
2013-09-14 20:23:00,47.5,23.2,29.92,NNW,342,0.0,0.0,38,0.00,,---,0.00,VWS V14.01,2013-09-15 00:23:00,
2013-09-14 20:28:00,47.3,23.0,29.92,NNW,342,0.0,0.0,38,0.00,,---,0.00,VWS V14.01,2013-09-15 00:28:00,
2013-09-14 20:33:00,47.3,23.0,29.92,NNW,342,0.0,0.0,38,0.00,,---,0.00,VWS V14.01,2013-09-15 00:33:00,
2013-09-14 20:38:00,47.3,23.0,29.92,NNW,342,0.0,0.0,38,0.00,,---,0.00,VWS V14.01,2013-09-15 00:38:00,
2013-09-14 20:43:00,47.1,22.8,29.92,NNW,342,0.0,0.0,38,0.00,,---,0.00,VWS V14.01,2013-09-15 00:43:00,
2013-09-14 20:48:00,47.1,22.8,29.92,NNW,342,0.0,0.0,38,0.00,,---,0.00,VWS V14.01,2013-09-15 00:48:00,
2013-09-14 20:53:00,47.1,22.8,29.92,NNW,342,0.0,0.0,38,0.00,,---,0.00,VWS V14.01,2013-09-15 00:53:00,
2013-09-14 20:58:00,47.1,22.8,29.92,NNW,342,0.0,0.0,38,0.00,,---,0.00,VWS V14.01,2013-09-15 00:58:00,
2013-09-14 21:03:00,46.9,22.7,29.92,NNW,342,0.0,0.0,38,0.00,,---,0.00,VWS V14.01,2013-09-15 01:03:00,
2013-09-14 21:08:00,46.8,22.5,29.92,NNW,342,0.0,0.0,38,0.00,,---,0.00,VWS V14.01,2013-09-15 01:08:00,
2013-09-14 21:13:00,46.8,22.5,29.92,NNW,342,0.0,0.0,38,0.00,,---,0.00,VWS V14.01,2013-09-15 01:13:00,
2013-09-14 21:18:00,46.8,22.5,29.92,NNW,342,0.0,0.0,38,0.00,,---,0.00,VWS V14.01,2013-09-15 01:18:00,
2013-09-14 21:23:00,46.6,22.4,29.92,NNW,342,0.0,0.0,38,0.00,,---,0.00,VWS V14.01,2013-09-15 01:23:00,
2013-09-14 21:28:00,46.4,22.2,29.92,NNW,342,0.0,0.0,38,0.00,,---,0.00,VWS V14.01,2013-09-15 01:28:00,
2013-09-14 21:33:00,46.4,22.2,29.95,NNW,342,0.0,0.0,38,0.00,,---,0.00,VWS V14.01,2013-09-15 01:33:00,
2013-09-14 21:38:00,46.2,22.0,29.95,NNW,342,0.0,0.0,38,0.00,,---,0.00,VWS V14.01,2013-09-15 01:38:00,
2013-09-14 21:43:00,46.2,22.0,29.95,NNW,342,0.0,0.0,38,0.00,,---,0.00,VWS V14.01,2013-09-15 01:43:00,
2013-09-14 21:48:00,46.2,22.0,29.95,NNW,342,0.0,0.0,38,0.00,,---,0.00,VWS V14.01,2013-09-15 01:48:00,
2013-09-14 21:53:00,46.2,22.0,29.95,NNW,342,0.0,0.0,38,0.00,,---,0.00,VWS V14.01,2013-09-15 01:53:00,
2013-09-14 21:58:00,46.2,22.0,29.95,NNW,342,0.0,0.0,38,0.00,,---,0.00,VWS V14.01,2013-09-15 01:58:00,
2013-09-14 22:03:00,46.2,22.0,29.95,NNW,342,0.0,0.0,38,0.00,,---,0.00,VWS V14.01,2013-09-15 02:03:00,
2013-09-14 22:08:00,46.2,22.0,29.95,NNW,342,0.0,0.0,38,0.00,,---,0.00,VWS V14.01,2013-09-15 02:08:00,
2013-09-14 22:13:00,46.2,22.0,29.95,NNW,342,0.0,0.0,38,0.00,,---,0.00,VWS V14.01,2013-09-15 02:13:00,
2013-09-14 22:18:00,46.2,22.0,29.95,NNW,342,0.0,0.0,38,0.00,,---,0.00,VWS V14.01,2013-09-15 02:18:00,
2013-09-14 22:23:00,46.2,22.0,29.95,NNW,342,0.0,0.0,38,0.00,,---,0.00,VWS V14.01,2013-09-15 02:23:00,
2013-09-14 22:28:00,46.0,21.9,29.95,NNW,342,0.0,0.0,38,0.00,,---,0.00,VWS V14.01,2013-09-15 02:28:00,
2013-09-14 22:33:00,46.0,21.9,29.95,NNW,342,0.0,0.0,38,0.00,,---,0.00,VWS V14.01,2013-09-15 02:33:00,
2013-09-14 22:38:00,46.0,21.9,29.95,NNW,342,0.0,0.0,38,0.00,,---,0.00,VWS V14.01,2013-09-15 02:38:00,
2013-09-14 22:43:00,46.2,22.0,29.95,NNW,342,0.0,0.0,38,0.00,,---,0.00,VWS V14.01,2013-09-15 02:43:00,
2013-09-14 22:48:00,46.0,21.9,29.95,NNW,342,0.0,0.0,38,0.00,,---,0.00,VWS V14.01,2013-09-15 02:48:00,
2013-09-14 22:53:00,46.0,21.9,29.95,NNW,342,0.0,0.0,38,0.00,,---,0.00,VWS V14.01,2013-09-15 02:53:00,
2013-09-14 22:58:00,45.9,21.7,29.95,NNW,342,0.0,0.0,38,0.00,,---,0.00,VWS V14.01,2013-09-15 02:58:00,
2013-09-14 23:03:00,45.9,21.7,29.95,NNW,342,0.0,0.0,38,0.00,,---,0.00,VWS V14.01,2013-09-15 03:03:00,
2013-09-14 23:08:00,45.9,21.7,29.95,NNW,342,0.0,0.0,38,0.00,,---,0.00,VWS V14.01,2013-09-15 03:08:00,
2013-09-14 23:13:00,46.0,21.9,29.95,NNW,342,0.0,0.0,38,0.00,,---,0.00,VWS V14.01,2013-09-15 03:13:00,
2013-09-14 23:18:00,45.9,21.7,29.95,NNW,342,0.0,0.0,38,0.00,,---,0.00,VWS V14.01,2013-09-15 03:18:00,
2013-09-14 23:23:00,45.9,21.7,29.95,NNE,22,0.0,0.0,38,0.00,,---,0.00,VWS V14.01,2013-09-15 03:23:00,
2013-09-14 23:28:00,45.9,21.7,29.95,NNE,22,0.0,0.0,38,0.00,,---,0.00,VWS V14.01,2013-09-15 03:28:00,
2013-09-14 23:33:00,45.9,21.7,29.95,NNE,22,0.0,0.0,38,0.00,,---,0.00,VWS V14.01,2013-09-15 03:33:00,
2013-09-14 23:38:00,46.0,21.9,29.95,NNE,22,0.0,0.0,38,0.00,,---,0.00,VWS V14.01,2013-09-15 03:38:00,
2013-09-14 23:43:00,46.0,21.9,29.95,NNE,22,0.0,0.0,38,0.00,,---,0.00,VWS V14.01,2013-09-15 03:43:00,
2013-09-14 23:48:00,45.9,21.7,29.95,NNE,22,0.0,0.0,38,0.00,,---,0.00,VWS V14.01,2013-09-15 03:48:00,
2013-09-14 23:53:00,45.9,21.7,29.95,NNE,22,0.0,0.0,38,0.00,,---,0.00,VWS V14.01,2013-09-15 03:53:00,
2013-09-14 23:58:00,45.9,21.7,29.95,NNE,22,0.0,0.0,38,0.00,,---,0.00,VWS V14.01,2013-09-15 03:58:00,